Regional Weather Roundup
Issued by NWS

Home | Current Version | Previous Version | Graphics & Text | Print | Product List | Glossary On
Versions: 1 2 3 4 5 6 7 8 9 10 11 12 13 14 15 16 17 18 19 20 21 22 23 24 25 26 27 28 29 30 31 32 33 34 35 36 37 38 39 40 41 42 43 44 45 46 47 48 49 50
000
ASUS45 KBOI 281610
RWRID
WEATHER ROUNDUP FOR IDAHO
NATIONAL WEATHER SERVICE BOISE ID
1000 AM MDT THU AUG 28 2014

NOTE: "FAIR" INDICATES FEW OR NO CLOUDS BELOW 12000 FEET
WITH NO SIGNIFICANT WEATHER AND/OR OBSTRUCTIONS TO VISIBILITY

IDZ012-014-281700-
SOUTHWEST IDAHO


CITY           SKY/WX    TMP DP  RH WIND       PRES   REMARKS
BOISE          SUNNY     72  43  35 CALM      30.09R
CALDWELL       SUNNY     72  46  40 S5        30.10S
MOUNTAIN HOME  SUNNY     73  44  34 E13       30.09S
$$

IDZ016-017-281700-
SOUTHCENTRAL IDAHO


CITY           SKY/WX    TMP DP  RH WIND       PRES   REMARKS
BURLEY         SUNNY     68  54  60 SE3       30.18S
JEROME         SUNNY     70  47  43 VRB3      30.18S
TWIN FALLS     SUNNY     74  53  48 CALM      30.18S
$$

IDZ019>023-281700-
SOUTHEAST IDAHO


CITY           SKY/WX    TMP DP  RH WIND       PRES   REMARKS
IDAHO FALLS    SUNNY     65  51  60 S3        30.24S
POCATELLO      SUNNY     72  53  51 CALM      30.22S
REXBURG        SUNNY     62  49  62 E3        30.25S
$$

IDZ006-010-011-018-031-032-281700-
CENTRAL IDAHO MOUNTAINS


CITY           SKY/WX    TMP DP  RH WIND       PRES   REMARKS
MCCALL         SUNNY     59  43  55 CALM      30.19S
HAILEY         SUNNY     63  45  51 NW8       30.26F
STANLEY          N/A     52  40  63 N3        30.32F
SALMON         SUNNY     57  46  67 CALM      30.17F
CHALLIS        SUNNY     62  46  55 N3        30.23F
$$

IDZ002-004-006-007-026-281700-
NORTHERN IDAHO


CITY           SKY/WX    TMP DP  RH WIND       PRES   REMARKS
LEWISTON       SUNNY     74  52  46 E3        30.01F
LOWELL           N/A     61  52  72 CALM      30.08F
COEUR D`ALENE  SUNNY     72  52  49 S16       29.99F
MULLAN PASS    SUNNY     58  47  66 VRB6      30.17S
$$


USA.gov is the U.S. government's official web portal to all federal, state and local government web resources and services.